ONEWEB-0271 (48989 NORAD) Tracking and Keplerian Element Data

This shows tracking and keplerian element data for the satellite.

Feedback or suggestion? Click here.




ElementValue
Catalog48989
NameONEWEB-0271
Epoch Orbit1299
Epoch Day262.25001157
Epoch Year2021
RAAN213.4878
Inclination87.7679
Eccentricity0.0009461
Argument of Perigee16.4445
Mean Anonmoly306.3943
Mean Motion13.63822125
Decay Rate1.5E-07
L11 48989U 21060Y 21262.25001157 .00000015 00000-0 00000+0 0 9996
L22 48989 87.7679 213.4878 0009461 16.4445 306.3943 13.63822125 12993

Live tracking and technical data element details for ONEWEB-0271 (NORAD 48989). ONEWEB-0271 can be tracked NOW for your location showing map with azimuth and elevation plus other details from your city location.

Track the satellite on the map from your city or location and see movement details for azimuth, elevation, latitude, longitude, range, height, and movement on the map or in text.







IsCatalogInMostPopularTable: catalog: 48989, numindb: 19
Update: records affected: 1



GetName: 48989 ONEWEB-0271

Hit Count: updated at: Fri, 24 Sep 2021 18:13:27 GMT